Theta_e
322 327 328 329 330 331 331 328 324 323 322 315 314 315 316 321 322 319 318 317 317 318 319 319 319 321 323 321 322 323 322 323 325 323 323 323 315 313 314 314 316 317 319 320 322 326 325 324 325 326 325 326 327 327 326 326 327 328 329 331 333 334 334 335 335 336 336 337 338 338 339 339 339 339 339 339 339 338 338 338 338 338 339 339 339 339 340 340 339 339 339 340 339 339 339 339 339
325 328 329 329 330 332 331 328 323 320 317 312 314 316 318 321 319 318 318 317 319 319 319 319 319 320 320 320 320 321 322 321 321 323 320 316 314 313 312 313 315 316 318 319 322 324 325 322 323 323 322 323 325 324 323 323 323 324 326 328 329 330 331 331 332 333 333 334 335 335 336 337 337 337 337 337 337 336 337 337 337 337 338 338 339 339 340 340 339 340 339 339 339 339 338 338 338
328 328 329 330 330 330 330 328 320 316 314 311 314 319 320 319 318 319 318 318 321 319 318 319 319 319 319 320 319 319 321 320 319 320 317 314 315 312 310 312 313 315 316 318 321 323 323 320 320 321 320 320 321 320 320 320 320 321 321 323 325 326 326 327 328 328 329 330 331 332 332 333 333 334 334 335 334 334 334 334 335 335 336 337 338 338 339 339 339 340 339 339 339 339 338 337 337
328 329 330 331 331 328 328 328 323 316 312 310 312 320 320 319 319 319 321 320 320 318 318 318 318 318 318 320 320 318 321 320 319 318 318 315 314 311 310 311 311 314 314 316 320 321 320 319 319 319 319 318 318 318 317 317 317 317 318 319 320 321 322 323 324 324 325 326 327 328 328 329 329 330 330 331 331 331 331 332 333 333 334 335 335 336 337 338 338 338 338 338 338 338 337 336 336
327 329 327 330 333 328 327 327 324 317 313 313 313 319 319 319 319 320 321 319 318 318 318 318 318 317 316 318 318 319 320 320 318 318 318 314 311 309 309 309 310 312 313 316 319 320 318 316 318 318 318 317 316 316 315 315 315 315 315 315 316 317 318 319 319 320 320 321 322 323 323 324 325 326 326 327 328 328 329 330 330 331 331 332 333 333 334 335 336 336 336 336 336 336 335 335 335
327 327 324 328 330 325 324 320 318 316 317 319 316 319 320 318 319 320 320 318 317 317 316 317 318 317 316 317 316 319 319 319 318 317 317 313 309 307 307 307 308 310 312 315 317 318 316 313 315 315 314 313 311 311 311 311 311 311 311 312 312 313 313 314 315 315 316 316 317 318 318 319 320 320 321 322 323 323 325 326 327 328 329 330 330 331 331 332 333 332 332 333 333 334 334 334 333
327 326 325 326 325 322 322 317 315 317 319 321 319 319 319 318 319 320 319 318 317 316 315 316 317 317 318 317 316 317 315 317 318 316 315 312 308 306 305 305 307 309 310 313 314 313 310 309 310 309 308 307 306 305 305 305 306 305 305 306 306 307 307 308 309 309 310 310 311 312 312 313 314 314 315 316 317 318 319 320 321 323 324 326 327 328 329 329 329 329 329 329 330 331 331 332 332
326 326 325 324 325 322 319 317 318 320 320 320 319 319 319 319 319 319 319 318 318 317 316 316 316 316 317 316 316 316 313 315 315 313 312 309 307 305 304 304 305 306 308 310 310 307 306 306 306 306 305 304 303 303 303 303 302 302 302 301 301 302 302 302 302 302 303 303 304 304 305 305 306 306 307 308 309 310 311 313 314 315 317 318 320 322 323 324 325 325 326 326 327 327 328 328 329
324 325 324 323 324 322 318 317 318 321 322 319 318 318 319 319 318 319 318 318 318 317 317 316 315 316 317 316 317 315 314 314 311 310 308 307 306 304 303 303 304 304 304 305 305 303 303 303 303 304 304 303 303 302 302 302 301 301 300 300 299 300 299 299 299 299 299 299 299 299 300 300 300 300 300 301 301 302 304 305 306 307 308 309 311 313 314 316 317 318 320 320 321 322 322 323 324
324 323 324 324 322 318 314 315 318 321 321 319 318 317 318 319 318 318 318 318 318 317 317 316 315 316 317 317 317 315 315 312 309 309 307 306 304 303 303 303 302 301 301 301 301 300 300 301 301 302 303 303 302 301 300 299 299 298 298 298 298 298 298 298 298 298 298 297 297 297 297 297 297 298 298 298 298 298 298 299 300 300 301 302 302 303 305 306 308 309 311 312 313 315 316 318 319
324 322 322 322 318 313 312 315 318 322 321 319 318 317 317 318 318 318 318 318 318 318 317 315 316 316 316 316 317 315 314 311 309 309 306 305 303 303 303 301 300 299 300 299 298 299 298 299 299 300 301 301 300 300 298 297 297 297 297 297 296 297 297 297 297 297 296 297 296 296 296 296 296 296 296 296 296 297 297 297 297 297 297 297 298 298 298 299 300 301 302 304 305 307 308 311 312
323 324 322 318 316 315 316 317 317 321 322 319 319 317 317 318 318 318 318 318 318 317 316 315 316 316 316 316 317 314 313 311 310 308 306 305 303 302 302 300 299 298 298 297 297 298 297 298 298 298 298 298 298 297 297 296 296 296 296 296 296 296 296 296 296 296 296 296 296 296 296 296 296 296 296 296 296 296 296 296 296 296 296 296 296 296 297 297 297 297 297 298 299 300 301 302 304
321 323 323 319 319 321 319 318 319 322 320 320 320 317 317 317 318 318 318 318 318 318 317 316 315 315 316 317 315 312 312 311 309 307 306 304 303 302 301 301 299 298 297 296 297 297 298 298 296 296 296 296 296 296 296 296 296 296 295 295 296 296 296 296 296 296 296 296 296 296 296 296 296 296 296 296 296 296 296 296 296 296 296 296 296 296 296 296 296 296 296 297 297 297 297 298 298
320 321 322 321 322 323 319 317 319 319 318 320 319 316 317 317 318 317 317 318 318 317 317 316 315 315 316 316 315 313 313 311 308 306 305 304 303 302 301 301 298 297 296 297 298 297 299 299 296 295 295 295 295 295 295 295 295 295 295 295 295 295 295 295 295 295 295 295 295 295 295 295 295 295 295 295 295 295 295 295 295 295 296 296 296 296 296 296 296 296 296 296 296 297 297 297 297
320 321 321 321 320 320 320 318 319 318 318 321 317 315 317 317 317 317 317 318 317 315 315 316 315 315 315 316 317 315 313 310 307 305 304 303 302 302 302 300 298 297 297 299 299 299 299 298 296 295 295 295 295 295 295 295 295 295 295 295 295 295 295 295 295 295 295 295 295 295 295 295 295 295 295 295 295 295 295 295 295 295 295 295 295 295 295 296 296 296 296 296 296 296 296 296 297
320 321 320 319 318 317 320 320 320 318 318 319 315 315 316 316 316 316 316 315 316 314 314 315 314 314 315 315 315 314 312 308 306 305 304 303 302 302 301 300 299 299 298 299 299 299 299 298 296 296 295 295 295 295 295 295 295 295 295 295 295 295 295 295 295 295 295 295 295 295 295 294 294 294 294 294 294 294 294 294 295 294 295 295 295 295 295 295 295 295 295 295 296 296 296 296 296
320 321 321 318 317 318 321 321 320 318 319 318 314 315 316 316 315 314 312 312 315 315 314 314 314 314 313 312 311 312 310 306 305 304 304 303 303 302 301 301 300 300 299 299 300 299 299 297 297 296 295 295 295 295 295 295 295 295 295 295 295 294 294 294 294 294 294 294 294 294 294 294 293 294 294 294 294 294 294 294 294 294 294 294 294 294 294 294 294 294 294 295 295 295 296 296 296
321 322 320 317 319 320 321 321 319 319 319 318 315 315 315 316 315 313 312 312 314 314 314 314 314 313 312 310 309 310 308 305 305 304 304 303 303 302 302 301 301 301 300 300 300 299 298 297 296 295 295 295 295 295 295 295 295 295 294 294 294 294 294 294 294 294 294 294 294 294 293 293 293 293 293 293 294 294 294 294 294 294 294 294 294 294 294 294 294 294 294 294 294 295 295 295 296
321 322 320 319 321 321 319 319 318 318 318 317 316 315 315 316 315 313 313 314 314 314 314 314 314 313 312 309 309 309 306 306 305 304 305 304 304 303 303 302 301 301 301 300 300 299 299 297 297 296 295 295 295 295 295 294 294 294 294 294 294 294 294 294 294 294 294 294 294 293 293 293 293 293 293 293 293 293 293 293 293 293 293 294 294 294 294 294 294 294 294 294 294 294 294 294 295
320 321 320 321 321 319 318 317 317 317 317 317 316 315 315 316 315 313 313 315 315 315 315 314 314 314 313 310 309 309 307 306 305 304 305 304 304 304 303 303 302 302 301 301 300 299 299 298 298 297 294 294 295 294 295 296 295 295 294 294 294 294 294 294 293 293 293 294 293 293 293 293 293 293 293 293 293 292 293 293 293 293 293 293 293 293 293 293 293 293 293 293 293 293 293 294 294
320 319 319 321 319 318 318 316 316 316 315 316 316 315 315 315 314 313 313 315 316 316 316 316 315 315 315 311 309 309 308 307 305 305 305 305 305 304 304 303 302 302 301 301 300 299 299 298 298 296 294 295 295 295 296 297 295 295 295 294 294 293 293 293 293 293 293 293 293 293 293 293 293 293 292 292 292 292 292 292 292 292 292 292 292 292 292 292 293 293 292 293 293 293 294 294 294
318 318 318 319 318 317 317 315 315 314 313 314 315 315 315 315 314 313 314 315 316 317 316 316 316 316 316 312 309 310 308 307 306 305 305 305 305 304 304 303 303 302 301 301 300 299 299 299 297 296 295 294 295 297 297 296 296 296 295 294 295 294 293 294 293 293 292 293 293 293 293 293 293 292 292 292 292 292 291 291 292 292 291 292 291 292 292 292 292 292 292 292 292 294 294 294 295
317 319 318 317 317 317 316 314 313 313 313 314 315 315 314 314 314 314 314 314 316 316 315 315 316 316 316 313 310 310 308 308 307 306 306 306 305 305 304 303 303 302 302 301 300 299 298 298 297 296 296 295 296 297 296 295 296 297 295 294 295 295 294 294 293 292 292 292 293 293 292 292 292 292 292 292 292 291 291 291 291 291 291 291 291 291 291 291 292 292 292 292 292 293 293 294 295
316 318 318 317 316 316 315 314 312 312 313 314 313 313 313 314 315 315 314 314 315 315 314 313 314 315 315 312 310 310 309 309 308 307 306 306 306 305 305 304 303 302 302 301 300 299 298 298 297 296 296 295 295 295 296 296 296 295 294 294 294 294 294 293 293 292 292 292 292 292 292 292 292 292 291 291 291 291 291 290 291 291 291 291 290 291 291 290 291 291 291 291 291 292 292 294 294
316 317 318 316 315 315 315 313 312 312 312 313 312 312 313 314 314 314 314 315 315 315 314 312 312 313 313 312 311 310 310 310 309 308 307 307 306 306 305 304 303 302 302 301 300 299 298 298 297 297 296 295 295 295 296 297 295 293 294 294 293 293 293 293 292 292 292 292 292 292 292 292 291 291 291 291 291 290 290 290 291 291 291 291 290 290 290 290 290 291 291 291 291 291 292 293 294
316 316 317 315 315 315 314 313 313 313 312 312 311 312 314 313 313 313 314 314 314 315 315 313 312 311 312 311 311 311 310 310 310 309 308 307 306 306 305 304 303 302 302 301 300 299 298 297 297 297 296 296 296 296 297 296 294 293 294 294 293 293 293 292 292 292 292 291 292 291 291 291 291 291 291 291 290 290 290 290 290 290 291 291 290 290 290 289 290 290 290 290 290 290 291 292 293
314 315 315 315 315 315 314 313 313 313 312 312 312 313 314 312 311 314 315 314 314 315 314 314 312 311 312 311 311 311 310 311 310 310 308 307 306 306 306 304 303 302 301 301 300 299 298 297 297 297 296 296 296 296 297 296 295 294 293 293 293 292 292 292 292 292 291 291 291 291 291 291 291 291 291 290 290 290 290 290 290 289 290 290 289 289 289 289 290 290 290 290 290 290 291 292 292
313 313 314 314 315 315 314 314 313 312 312 312 312 313 314 312 311 314 315 312 313 314 314 313 312 311 311 311 311 311 311 311 310 310 309 308 307 306 305 305 303 302 301 301 300 299 298 297 297 296 297 296 295 296 296 296 296 295 293 293 293 292 291 292 292 291 291 291 291 291 291 291 291 290 290 290 290 290 289 289 289 289 290 290 288 288 289 289 290 291 291 290 290 291 291 292 292
313 312 314 316 315 315 315 315 313 313 313 312 311 312 313 314 312 314 314 312 312 313 313 313 312 311 311 311 311 310 311 311 310 310 309 308 307 306 306 305 303 302 302 301 300 299 298 297 296 296 296 295 295 296 296 295 296 294 293 294 293 291 291 292 292 291 291 291 291 291 290 290 290 290 290 290 290 289 289 289 289 289 290 289 287 288 289 289 290 291 291 290 291 291 291 292 292
313 313 314 315 316 316 316 315 312 312 312 311 312 312 314 316 315 316 315 312 312 312 312 312 312 311 311 311 311 310 310 310 310 310 309 308 307 306 305 305 303 302 301 301 300 299 298 297 297 296 296 295 295 296 295 295 295 294 294 294 292 291 292 292 292 291 291 290 290 290 290 290 290 290 290 289 289 288 288 288 288 289 289 288 287 289 289 289 290 291 290 290 291 291 291 291 291
314 315 315 315 315 315 315 314 312 313 311 310 312 312 314 316 317 317 315 312 312 312 313 313 313 312 311 311 311 310 310 310 310 309 309 308 307 306 305 305 303 302 301 300 300 299 298 297 297 296 296 296 295 295 295 295 295 294 293 293 292 292 292 292 292 291 291 290 290 290 290 290 290 290 289 289 288 288 288 288 288 289 288 287 287 288 287 288 290 290 289 290 290 290 291 290 290
316 315 314 316 315 316 316 313 312 314 311 310 313 312 314 316 317 317 314 313 312 313 314 314 313 313 312 311 310 310 310 310 309 309 308 308 307 306 305 304 303 301 301 300 300 299 298 297 296 296 296 295 295 295 295 294 294 293 293 292 292 291 291 292 292 291 291 290 290 290 290 289 289 289 289 288 288 287 287 287 288 288 287 286 287 287 287 288 289 289 289 289 289 289 290 290 290
318 316 314 316 315 316 317 313 312 314 312 311 312 313 315 316 316 315 313 313 313 313 314 314 314 314 312 311 310 310 309 309 309 308 308 307 307 305 304 304 302 301 300 300 300 299 298 297 296 296 296 295 295 294 294 293 293 293 293 292 292 291 291 292 292 291 290 290 290 290 290 289 289 288 288 288 287 287 287 287 287 287 286 286 286 286 287 288 288 288 288 289 289 289 289 289 289
315 316 315 316 315 314 314 314 312 312 313 313 313 313 314 315 316 315 313 313 313 313 314 314 314 314 314 312 311 310 310 309 308 308 308 307 306 305 304 303 302 301 300 300 299 298 298 297 296 296 296 296 295 295 294 293 293 293 292 292 291 291 290 291 292 291 290 290 290 290 289 289 288 288 288 288 288 287 287 287 286 286 286 286 286 286 287 288 288 288 288 288 288 288 288 288 288
312 313 313 314 315 314 314 315 313 312 312 313 314 313 314 314 315 315 314 314 313 313 313 314 314 314 314 314 312 311 310 309 309 309 308 306 306 304 303 303 302 301 300 300 299 298 298 298 297 296 296 296 295 295 294 293 293 293 292 292 291 291 291 291 291 291 290 290 290 290 289 288 288 288 288 288 288 287 287 286 286 286 286 286 286 286 287 288 288 288 288 287 287 288 288 288 288
314 315 315 313 313 313 315 316 312 312 313 313 314 314 314 315 314 315 315 315 314 314 314 314 314 313 314 314 313 312 311 310 310 309 308 307 305 304 303 302 302 301 300 299 299 298 298 298 297 296 296 296 295 295 294 294 294 293 293 293 292 291 292 291 291 290 290 290 290 289 289 288 288 288 288 287 287 286 286 286 285 285 286 286 286 287 287 288 288 287 287 287 287 287 287 288 288
316 316 316 315 314 314 317 316 311 311 313 313 314 314 314 315 315 315 315 315 314 314 314 314 314 314 314 314 314 313 312 311 310 309 308 307 305 304 302 302 301 300 299 299 298 298 298 297 297 296 296 295 295 295 294 294 294 293 293 293 293 293 292 292 291 290 290 290 290 289 288 288 288 288 287 287 286 286 285 285 285 285 286 286 286 286 286 286 286 286 286 287 287 287 287 288 288
316 315 314 315 315 315 317 316 310 310 312 313 314 315 314 315 314 314 314 314 314 313 313 314 314 314 315 315 314 314 312 311 310 309 308 306 304 303 302 301 301 300 299 298 298 298 298 297 297 297 296 295 295 295 294 294 294 294 294 294 294 293 293 292 292 291 290 289 289 288 288 288 288 287 287 286 286 285 285 285 285 285 286 286 286 286 286 286 286 286 287 287 287 287 287 287 287
316 315 315 315 316 317 317 314 310 310 311 313 314 313 314 314 314 314 314 313 313 314 314 314 315 315 315 315 315 315 313 311 310 308 308 306 304 303 302 301 301 300 299 298 298 298 298 297 297 297 296 295 295 295 294 294 294 294 294 294 294 293 293 292 292 292 291 290 289 288 288 287 287 287 286 286 286 285 285 285 285 285 285 285 285 286 286 286 286 286 287 287 287 286 287 287 287
316 316 315 315 317 318 316 313 310 309 310 312 313 313 314 314 314 314 314 314 314 314 315 315 316 316 316 316 317 315 313 311 310 308 307 305 304 303 302 301 300 300 299 298 298 298 297 297 297 297 296 295 295 294 294 294 294 294 294 293 293 293 292 291 290 290 290 289 288 288 288 287 287 287 286 286 285 285 284 284 284 284 285 285 285 285 285 286 286 286 286 286 286 286 286 287 287
316 317 317 316 318 318 317 316 313 312 312 311 312 313 314 315 316 315 315 314 314 314 314 315 316 315 316 316 317 316 314 312 311 309 307 305 304 303 302 301 300 300 299 298 298 297 297 297 297 297 296 295 295 294 294 294 294 293 292 292 292 291 291 290 290 290 289 288 288 288 288 287 287 286 286 285 285 284 284 284 284 284 284 284 285 285 285 285 286 286 286 285 286 286 286 286 286
315 318 318 318 318 318 319 319 316 315 315 312 313 314 314 314 317 317 315 313 313 313 313 313 314 315 316 316 316 316 314 312 311 310 308 305 304 304 303 301 300 300 299 298 298 297 297 297 297 296 296 296 295 294 294 294 293 292 292 291 291 291 291 291 291 291 291 290 289 289 288 288 287 286 285 285 284 284 284 284 283 283 284 284 284 284 285 285 285 285 285 285 285 285 285 285 286
314 319 320 319 319 318 319 319 317 315 315 313 312 314 315 315 315 316 316 314 313 314 315 314 314 314 317 318 317 315 313 312 312 311 308 306 305 304 303 302 300 300 299 299 298 297 297 297 297 296 296 296 295 294 294 293 293 292 292 291 292 292 292 292 292 291 292 291 290 289 288 287 286 286 285 285 284 284 284 283 283 283 283 284 284 284 284 284 285 285 285 285 284 284 284 285 285
316 318 319 318 317 318 319 318 317 315 316 315 314 315 316 315 315 315 315 314 314 314 315 315 315 314 314 317 319 315 313 313 312 311 309 306 305 304 303 302 300 300 299 299 298 297 297 297 297 296 296 296 295 294 294 293 292 292 292 292 292 292 293 293 292 291 291 290 289 288 288 287 286 285 285 284 284 284 283 283 283 283 283 284 284 284 284 284 284 284 284 284 284 284 284 284 285
317 315 315 315 316 316 316 316 315 315 315 316 316 315 316 316 315 316 315 314 313 313 313 314 314 314 313 314 318 315 313 313 312 311 309 307 306 305 304 302 301 300 299 299 298 297 297 296 296 296 296 295 295 294 293 293 292 292 292 292 292 293 293 293 292 291 290 289 288 288 287 287 286 285 284 284 284 283 283 282 282 282 283 283 283 283 283 283 283 283 283 283 283 284 284 284 284
314 312 313 313 314 313 314 314 314 314 316 317 317 316 316 316 314 315 315 313 313 314 313 314 314 316 316 316 319 317 313 313 313 311 310 308 307 305 304 303 301 300 299 299 298 297 297 296 296 296 296 295 295 294 293 293 292 292 292 292 292 292 292 291 291 290 289 288 288 287 287 286 286 285 285 284 283 283 283 282 282 282 282 283 283 283 283 283 283 283 283 283 283 283 283 283 283
312 313 314 314 313 312 312 313 312 314 318 318 317 316 316 316 315 315 315 314 314 315 314 315 315 316 318 318 319 316 313 313 312 311 310 309 307 305 304 303 301 300 299 298 298 297 297 296 296 296 296 295 295 294 293 293 292 292 292 292 292 292 291 291 290 290 289 288 288 287 287 286 286 285 285 284 283 283 282 282 282 282 282 282 282 282 282 282 282 282 282 282 282 282 282 282 282
312 314 314 315 315 313 313 313 312 316 319 317 316 317 317 316 314 314 314 314 314 315 314 314 315 316 318 320 319 315 313 312 311 310 309 308 306 305 303 303 301 300 299 298 298 297 297 296 296 296 296 295 295 294 293 293 292 292 292 291 291 291 291 291 290 290 289 288 288 287 287 286 285 285 284 284 283 283 282 282 282 281 282 282 282 282 282 282 282 281 281 281 281 281 281 282 282
312 313 313 316 317 316 317 316 315 317 318 314 314 318 319 316 314 313 314 314 313 314 314 314 315 314 317 322 320 315 313 312 311 310 309 307 306 305 303 303 301 300 299 298 298 297 297 296 296 296 296 295 294 294 293 293 292 291 291 291 291 291 291 290 290 289 289 288 288 287 286 286 285 285 284 284 283 283 282 282 282 281 281 281 281 281 281 280 281 281 281 281 281 281 281 281 281
311 313 314 316 317 319 321 319 318 318 317 313 311 314 316 313 312 314 314 313 313 314 314 316 316 315 318 322 320 315 313 312 311 310 309 307 306 305 304 303 302 300 299 298 298 297 297 296 296 296 295 295 294 294 293 292 292 291 291 290 290 290 290 289 289 288 288 287 287 286 285 285 285 284 284 283 283 283 282 281 281 281 280 280 280 280 280 280 280 280 280 280 280 280 280 280 280
311 313 314 316 317 318 318 317 317 317 315 313 311 312 313 311 312 314 314 314 314 314 314 317 317 318 322 320 316 314 312 311 311 310 309 308 306 305 304 303 302 300 299 298 298 297 296 296 296 296 295 295 294 294 293 292 292 291 291 290 290 289 289 288 288 287 287 286 285 285 284 284 283 283 283 282 282 282 281 281 280 280 280 279 279 279 279 279 279 279 280 280 280 280 280 280 280
312 313 314 316 316 316 316 316 316 314 314 314 312 312 312 311 313 315 314 314 314 313 315 316 315 319 322 318 314 313 312 310 310 310 309 308 306 306 305 303 302 301 299 298 297 297 297 296 296 296 295 294 294 294 293 292 292 291 290 290 289 289 288 287 287 286 286 285 284 284 283 283 282 282 282 282 281 281 280 280 279 279 279 279 279 279 279 279 279 279 279 279 279 279 279 279 279
314 313 315 315 315 316 317 318 316 313 314 315 314 314 313 313 314 315 314 313 313 314 314 313 313 315 318 318 317 315 313 311 311 310 309 308 306 306 305 303 302 301 300 298 297 297 296 296 296 295 295 294 294 293 293 292 291 291 290 289 289 288 287 287 286 285 285 284 283 283 282 282 281 281 281 281 281 280 280 279 279 279 278 278 278 278 278 278 278 278 278 278 278 278 278 278 279
313 313 315 314 313 314 314 317 316 315 316 316 315 315 314 314 315 314 313 312 312 313 313 313 313 313 315 318 319 318 314 312 311 309 309 308 306 305 305 303 302 301 300 299 298 297 296 296 296 295 294 294 294 293 292 292 291 290 290 289 288 287 287 286 285 285 284 283 283 282 282 281 281 281 280 280 280 279 279 279 278 278 278 278 278 278 278 278 278 277 278 278 278 278 278 278 278
310 310 311 312 313 314 314 315 315 315 317 316 314 315 313 313 315 313 312 312 312 312 312 311 312 313 314 316 317 317 315 314 312 310 309 308 306 305 305 304 302 301 300 299 298 297 296 296 295 295 294 294 294 293 292 291 291 290 289 288 288 287 286 285 285 284 283 282 282 282 281 281 280 280 280 279 279 279 278 278 278 278 278 277 277 277 277 277 277 277 277 277 277 277 277 277 277
307 307 309 309 311 313 313 314 314 314 315 315 315 315 313 313 314 314 314 313 312 312 312 312 311 312 314 314 316 317 317 317 315 312 311 309 307 305 304 303 302 301 300 299 298 297 296 296 295 295 294 294 293 292 292 291 290 289 289 288 287 286 285 285 284 283 282 282 281 281 281 280 280 279 279 279 278 278 278 278 277 277 277 277 277 277 276 276 276 276 276 276 276 276 275 275 275
308 308 309 309 309 310 311 313 313 313 314 314 315 315 313 313 314 314 314 313 313 313 312 313 313 312 313 314 315 318 319 318 316 314 313 311 308 306 303 302 301 300 299 298 297 296 296 295 295 294 294 294 293 292 291 290 289 289 288 287 286 285 284 284 283 282 282 281 281 281 280 280 279 279 279 278 278 277 277 277 277 276 276 276 276 276 275 275 275 275 275 275 275 275 274 274 274
312 310 311 311 311 311 312 314 314 313 314 314 315 315 313 312 313 313 312 312 313 313 313 314 315 313 313 314 315 317 319 318 316 315 314 313 310 306 303 301 300 299 298 297 297 296 295 295 295 294 294 293 292 292 291 290 289 288 287 286 285 284 284 283 282 282 281 281 280 280 279 279 279 278 278 277 277 277 276 276 276 275 275 275 275 275 274 274 274 274 274 274 274 274 274 274 274
Wind_Speed
1 1 0 2 3 5 4 3 4 3 4 5 2 1 4 4 1 3 6 5 3 4 3 1 1 1 2 2 2 3 5 3 3 1 0 4 5 3 3 5 6 6 6 6 5 6 7 7 10 9 9 9 9 8 6 5 5 5 6 8 10 10 9 7 7 7 7 7 8 8 9 9 9 9 9 9 9 9 8 8 8 7 7 7 8 8 8 9 9 9 9 9 9 9 9 9 8
1 2 2 4 4 4 2 2 4 3 5 5 3 1 5 6 3 6 7 6 2 4 5 2 3 1 3 4 4 5 1 6 6 4 4 7 7 4 3 4 5 5 5 6 5 6 7 7 8 8 7 8 8 6 5 5 5 5 5 7 9 9 7 6 6 6 5 5 5 5 6 6 5 5 6 6 7 8 7 8 8 7 7 7 7 8 9 9 9 9 9 9 9 9 9 8 8
2 3 3 4 4 4 2 2 5 4 5 4 3 4 5 6 5 5 4 5 6 7 6 4 2 1 2 4 3 5 1 5 6 7 6 7 6 5 4 4 6 5 4 5 6 6 7 5 5 6 5 5 6 5 5 5 5 5 5 6 6 6 6 6 7 6 6 8 8 5 3 3 3 1 1 1 2 2 4 6 6 5 6 5 6 9 9 8 9 9 9 9 9 9 9 9 8
3 4 4 4 4 4 3 4 5 5 5 4 2 6 6 5 6 4 6 7 8 7 5 4 3 1 4 7 2 3 0 5 6 5 6 6 5 7 7 6 6 4 5 5 6 6 5 4 5 5 4 5 4 5 4 5 5 5 5 5 5 5 5 5 6 6 6 8 9 5 4 4 3 3 3 3 3 3 3 4 3 3 2 2 2 6 7 6 7 8 8 9 10 9 9 10 9
1 4 5 5 3 1 3 4 4 6 4 4 2 5 6 4 6 7 7 7 6 5 3 5 4 3 2 5 2 2 1 4 5 5 7 8 7 9 8 8 7 5 6 6 6 6 5 5 6 5 5 5 5 5 4 4 5 5 5 5 5 5 5 5 5 5 5 5 5 5 4 4 4 4 4 4 4 5 5 4 3 3 4 4 3 4 5 4 5 6 6 7 9 9 9 10 10
2 4 4 5 3 1 3 5 5 6 2 4 3 3 6 5 6 8 7 6 6 3 2 4 2 1 3 1 1 2 3 2 5 5 6 9 9 9 9 8 7 7 7 6 7 6 6 6 6 6 5 5 5 4 4 4 5 4 5 5 5 5 5 5 5 5 5 4 4 4 4 4 4 4 4 5 5 5 6 5 5 5 6 7 6 6 6 7 7 7 7 7 8 10 10 10 10
4 3 3 4 3 1 5 6 6 5 3 4 3 3 4 6 6 9 9 6 4 2 2 4 1 2 3 3 2 2 5 2 5 5 6 11 11 10 10 8 8 8 7 7 6 5 7 7 6 5 4 4 3 3 3 3 4 4 4 5 5 5 5 5 5 5 5 5 5 5 5 5 5 6 6 6 6 6 6 6 7 7 7 8 8 8 8 9 9 10 10 10 11 13 13 12 12
5 3 1 3 4 3 6 7 6 4 3 3 2 3 2 5 7 7 8 5 4 5 6 5 3 5 2 3 3 4 6 4 6 7 8 11 12 12 9 8 8 8 8 8 6 6 7 7 7 5 4 3 2 1 1 2 2 2 2 3 3 4 5 5 5 5 6 6 5 6 6 6 7 7 7 6 6 6 6 7 7 8 8 8 9 10 10 11 11 12 12 13 13 14 14 14 14
5 3 1 3 5 4 5 7 5 3 1 2 2 1 2 4 7 7 8 6 4 5 7 7 6 5 2 2 3 4 6 7 9 9 10 11 13 11 9 8 8 9 9 8 7 7 8 8 7 6 5 4 3 3 2 1 0 1 1 2 2 3 3 4 5 5 6 6 6 7 7 7 8 8 7 7 7 6 6 7 7 8 8 8 9 10 10 11 12 13 14 15 15 15 15 16 16
4 3 2 3 5 5 6 6 4 1 2 2 3 4 3 5 7 7 9 7 5 5 5 6 8 8 2 2 2 4 8 11 11 11 11 12 12 11 9 9 10 10 10 10 9 8 9 8 8 8 7 6 5 4 3 2 1 0 1 1 2 2 3 4 4 5 5 6 6 6 7 7 7 8 8 8 8 8 7 8 8 8 9 9 9 10 10 11 12 13 14 15 16 16 17 17 17
4 3 2 4 5 6 5 4 2 0 3 3 3 5 5 6 7 7 8 7 7 6 5 6 6 10 8 6 2 5 10 14 13 13 13 13 13 11 10 11 12 12 12 12 11 8 9 8 8 7 7 7 6 5 4 3 2 2 2 2 3 3 4 4 5 5 6 6 6 6 7 7 8 8 8 8 8 9 9 9 9 10 10 10 11 11 12 12 13 13 15 15 16 17 18 18 19
4 3 3 5 6 5 4 5 4 2 1 3 5 7 6 7 9 8 10 9 8 7 7 9 2 4 9 7 1 8 12 14 13 14 15 14 12 10 9 10 12 12 12 12 10 9 8 8 7 7 6 5 5 4 4 4 4 3 3 3 4 4 5 6 6 6 6 7 7 7 8 8 8 9 9 9 9 9 10 10 10 11 11 12 12 13 13 13 14 14 15 16 17 18 19 19 19
4 3 4 6 5 6 5 6 5 4 4 5 5 8 7 9 11 10 10 9 9 9 8 11 3 1 7 4 3 7 11 14 13 14 15 13 11 10 9 9 11 12 12 11 10 10 8 7 7 7 6 5 4 3 3 4 4 4 5 5 5 6 7 7 7 7 8 8 8 8 8 8 8 8 9 9 9 9 9 10 10 11 11 12 12 13 14 14 14 15 15 16 17 18 19 19 20
3 3 4 5 4 6 6 6 5 5 5 2 5 8 8 8 9 10 8 10 11 7 3 7 5 2 7 5 3 5 10 15 15 15 15 12 11 11 9 10 12 12 11 10 9 9 8 7 8 8 7 6 5 4 3 4 4 5 6 6 7 8 8 8 8 8 8 8 9 9 9 9 10 10 10 10 10 10 10 10 10 10 10 11 11 12 12 13 14 15 15 16 17 17 18 18 19
3 3 3 6 5 6 4 5 5 6 3 6 6 6 8 6 5 9 9 10 6 4 5 5 6 3 3 5 3 2 12 18 17 16 15 13 12 11 10 10 11 11 11 9 8 8 8 9 10 9 8 7 6 5 4 4 4 5 6 6 7 7 8 8 8 8 9 9 9 10 11 12 12 12 12 12 12 12 12 12 12 12 12 12 12 12 12 12 13 13 14 15 16 16 17 17 17
3 3 3 5 6 6 2 3 3 5 2 6 5 4 8 6 4 7 3 4 1 4 5 5 8 5 3 2 1 4 17 21 18 17 16 14 12 11 10 10 10 10 11 10 10 10 9 11 10 10 9 8 7 6 5 4 4 5 5 5 6 6 7 7 8 8 9 9 9 10 12 13 13 14 14 14 14 14 15 14 14 14 14 14 14 14 13 13 13 14 14 14 15 15 15 15 16
2 3 5 5 6 6 1 2 2 3 3 5 6 5 8 7 5 4 3 4 6 4 7 7 8 7 3 3 4 8 20 21 19 18 16 15 13 11 11 11 11 10 11 11 10 11 11 11 11 11 11 10 8 7 6 5 4 5 5 4 5 6 6 7 8 8 9 10 10 12 13 13 13 14 14 14 14 14 14 15 15 15 15 15 15 15 15 15 16 16 16 16 16 16 16 16 17
3 4 5 5 6 4 1 3 3 3 5 1 6 7 9 7 6 4 1 6 10 8 9 8 8 8 4 6 6 13 21 19 20 20 18 16 14 14 14 14 14 12 12 12 11 12 12 12 12 12 12 11 9 8 6 6 5 5 5 4 5 5 6 7 8 8 9 10 11 13 13 12 13 14 14 13 14 14 15 15 14 14 15 15 15 15 16 17 17 17 17 18 18 19 20 19 19
5 4 5 6 5 2 2 4 4 4 6 2 3 6 9 6 5 6 5 10 11 12 12 10 11 11 9 9 10 16 19 19 20 20 20 19 17 17 16 15 15 14 14 14 13 13 12 13 12 12 13 12 10 9 7 7 6 5 5 4 4 5 5 6 7 8 9 9 11 12 12 12 14 14 14 15 16 16 17 16 16 17 17 17 17 17 18 18 18 19 19 20 20 21 21 20 20
5 4 6 4 2 2 2 4 4 4 4 4 3 4 7 6 3 6 7 12 12 15 13 11 14 16 15 13 15 18 19 19 21 21 21 20 19 18 17 17 17 17 16 15 14 15 13 13 13 13 14 13 11 9 8 7 6 6 5 4 4 4 5 6 7 7 8 9 10 11 11 12 13 14 15 16 16 16 16 17 18 18 19 20 20 20 21 21 21 21 22 22 22 21 21 21 21
2 4 7 3 3 4 3 2 3 2 2 6 5 2 6 6 5 6 7 10 12 14 14 15 16 16 16 15 17 19 19 20 22 22 21 21 21 19 18 17 17 16 16 15 15 16 15 15 16 16 15 14 12 10 8 8 7 6 5 5 5 4 4 5 5 6 7 8 9 9 10 11 12 12 13 14 14 14 15 15 16 17 18 19 20 20 21 22 22 22 23 23 22 21 21 21 20
2 7 9 4 2 5 1 2 1 1 1 5 6 5 5 4 6 10 11 12 11 6 7 13 15 15 13 17 18 18 19 19 21 23 23 23 23 21 19 17 17 16 17 16 16 17 17 16 17 17 15 14 12 10 9 9 8 7 6 6 5 4 4 4 4 4 6 7 8 8 9 10 10 10 12 12 13 13 14 14 14 15 16 17 18 18 19 20 20 20 21 21 21 20 20 20 19
5 8 8 5 4 5 0 2 1 1 4 6 6 5 3 4 8 11 14 18 15 3 2 3 7 8 7 16 18 17 18 19 21 25 25 25 25 24 22 19 19 18 17 17 17 17 18 17 18 17 15 15 13 11 11 10 9 8 8 7 6 5 4 3 2 3 4 6 6 7 7 8 9 9 11 12 12 13 13 14 14 15 15 16 17 17 18 19 18 18 18 19 20 19 20 19 18
6 7 6 4 3 5 3 2 2 3 6 6 3 3 5 10 10 8 14 20 19 10 2 2 2 2 6 15 17 17 19 20 23 26 26 25 26 26 23 20 19 18 18 18 17 17 18 18 19 18 16 16 15 13 11 9 10 10 9 7 7 7 5 4 2 2 3 4 5 5 6 6 7 8 10 11 12 13 13 14 14 14 14 15 16 16 18 19 18 18 18 19 19 19 20 17 16
10 9 6 3 2 6 5 3 4 5 6 5 3 7 11 13 7 7 17 19 17 15 8 7 6 6 9 13 16 16 17 19 22 23 23 23 22 23 22 20 19 18 19 19 18 18 19 19 19 18 17 16 15 14 11 10 11 11 10 8 8 7 6 4 2 2 2 3 4 5 5 6 7 7 9 11 12 12 13 14 13 13 13 13 16 16 17 19 18 17 17 19 19 19 18 16 16
6 7 6 4 6 7 5 6 7 6 5 5 6 12 13 8 4 10 21 20 17 16 14 10 9 10 12 12 14 15 16 18 20 22 23 22 21 23 24 22 21 20 21 20 19 19 19 20 20 18 17 16 15 14 12 11 12 12 11 10 8 7 6 5 3 2 1 1 3 4 5 5 6 7 9 10 11 12 12 12 12 12 12 13 16 16 17 18 17 16 17 18 19 19 17 15 16
2 6 8 8 10 8 6 8 8 6 6 8 10 12 11 4 2 12 14 8 10 13 14 13 10 12 13 12 13 14 15 18 21 21 21 21 21 24 26 25 24 22 21 22 21 19 20 21 20 18 17 16 16 14 12 12 12 12 12 10 9 8 7 5 4 2 1 1 2 3 4 5 6 7 9 9 9 10 10 11 12 13 12 13 15 14 16 17 15 14 15 19 19 18 17 15 14
4 6 9 12 12 10 10 11 9 6 5 8 10 11 11 5 6 18 10 4 5 10 12 13 12 12 12 13 13 12 13 17 20 20 21 23 24 25 27 27 26 23 23 24 21 20 22 22 20 19 18 19 18 14 13 13 11 13 12 10 10 9 7 6 4 3 2 3 3 3 4 5 6 7 8 8 9 9 10 11 12 12 11 11 14 14 16 16 13 11 13 17 17 15 16 15 14
5 5 9 12 11 12 14 12 9 8 5 7 5 8 12 12 15 23 13 8 7 9 11 12 12 12 11 12 11 10 12 16 19 20 23 25 24 24 27 27 26 24 23 23 21 21 23 22 21 19 18 20 18 14 15 14 13 14 13 10 11 9 8 6 5 4 4 4 4 3 4 5 6 7 8 9 9 9 10 10 11 10 8 11 15 14 14 13 11 10 12 13 12 13 14 13 13
6 5 7 9 10 11 10 9 7 8 5 7 5 7 10 13 21 21 9 11 10 10 11 11 11 11 10 11 10 11 13 15 18 22 24 24 23 24 25 25 26 25 21 22 23 23 23 23 21 20 19 20 18 15 15 14 13 14 13 11 11 10 8 7 6 6 5 4 5 5 5 5 6 7 8 9 9 9 9 9 9 8 9 13 15 12 12 13 10 10 12 12 12 12 12 13 14
5 5 5 6 9 6 6 8 9 8 4 7 7 8 10 10 15 14 9 12 11 10 12 12 12 11 10 11 11 12 13 15 20 23 23 23 23 23 24 25 26 26 22 22 25 24 24 25 23 21 21 21 19 16 15 15 15 15 14 13 12 11 9 8 7 7 6 5 5 6 6 6 7 8 8 8 8 8 8 8 8 8 11 15 14 12 14 13 10 11 13 12 13 13 13 15 15
6 5 6 7 7 5 6 9 11 8 4 8 9 6 11 13 8 6 10 9 10 10 11 11 12 12 11 11 12 12 12 16 20 22 23 24 23 22 23 25 26 27 25 23 25 24 23 25 25 24 23 22 21 18 16 17 17 16 15 14 13 12 11 9 8 8 7 6 6 6 8 7 7 8 8 8 7 7 8 8 8 10 13 16 15 14 14 11 10 12 13 12 13 14 15 16 15
6 6 8 8 8 8 5 7 9 7 5 10 12 7 9 11 4 6 8 8 9 10 11 12 14 13 13 12 12 12 12 14 17 20 23 24 24 23 23 25 27 28 26 24 26 27 24 26 27 25 24 23 21 19 18 18 17 16 15 14 14 13 12 10 9 9 8 7 7 6 8 8 7 8 8 8 8 8 9 10 10 12 15 16 16 15 14 12 12 13 13 13 13 14 15 15 16
6 6 7 9 11 11 6 3 5 8 6 9 13 11 14 15 11 7 6 9 10 11 13 15 15 15 14 12 12 12 12 13 14 18 24 25 24 23 23 25 26 27 26 25 28 29 26 26 28 25 24 22 20 20 19 18 17 16 15 14 14 13 12 11 9 10 9 8 7 7 9 9 7 8 9 10 10 10 11 11 12 13 14 16 16 15 14 13 12 11 12 14 14 13 15 16 17
10 8 7 10 10 11 11 5 5 10 9 10 12 13 17 20 18 17 13 10 12 14 15 16 17 18 16 13 13 13 13 15 14 17 24 25 23 23 23 24 26 26 26 25 27 28 25 25 26 25 24 22 20 19 19 17 15 15 13 12 13 13 12 12 12 11 10 9 8 9 11 8 8 10 10 11 11 11 11 11 12 12 14 15 15 14 13 12 10 11 13 15 14 14 15 16 17
14 12 9 11 11 11 15 6 6 10 8 9 14 15 18 20 18 18 17 15 14 15 15 15 16 17 15 13 14 13 14 14 13 17 22 23 23 23 23 23 25 26 26 25 26 27 26 24 25 25 24 23 20 19 19 17 15 14 13 12 13 13 12 12 12 12 11 10 9 11 12 9 9 10 11 11 11 10 10 11 12 13 13 13 12 12 11 11 11 13 14 14 14 14 14 14 14
12 12 10 13 12 13 16 7 6 6 6 10 14 15 19 21 19 18 17 16 17 18 17 17 18 15 13 14 15 14 14 11 11 15 19 22 22 22 23 22 23 25 25 26 27 27 27 26 26 26 24 24 22 20 20 19 17 16 15 14 13 13 13 12 12 12 12 11 11 13 12 10 11 11 11 11 10 10 10 11 12 12 10 10 11 11 12 13 13 14 13 12 13 13 13 12 12
11 12 11 12 11 13 14 3 6 6 4 9 13 15 19 20 18 17 17 17 18 19 19 20 20 16 12 14 16 14 11 8 10 13 15 19 21 22 23 22 24 26 26 28 28 28 28 27 27 27 25 25 23 22 21 20 19 18 16 16 14 13 13 12 11 11 11 12 13 13 12 11 11 11 11 10 10 10 11 10 11 11 10 10 11 13 14 14 14 13 12 12 11 12 13 12 11
11 9 9 10 10 12 8 4 6 5 3 7 11 13 16 18 18 18 19 19 17 19 21 19 17 16 14 14 13 12 10 9 10 12 13 17 20 22 22 22 24 27 27 28 28 28 28 27 27 27 26 26 24 23 23 21 19 18 15 14 14 12 11 12 12 11 12 14 14 13 12 12 12 11 10 10 11 11 11 11 11 12 12 11 12 13 13 13 12 11 11 11 11 12 12 11 9
10 8 7 10 10 10 6 2 4 6 6 7 11 11 13 16 17 19 23 21 16 18 21 18 15 15 16 14 11 10 11 11 11 12 13 16 19 21 22 22 23 25 25 27 29 29 29 29 28 28 27 27 25 24 24 21 18 18 15 14 15 13 11 13 14 15 15 15 14 14 13 13 12 11 11 11 12 12 12 12 12 13 13 11 11 12 13 12 12 11 11 11 11 12 12 10 9
9 10 10 11 11 11 9 2 1 7 8 4 8 10 11 12 14 15 13 11 11 14 16 15 14 14 14 13 11 10 11 11 11 13 14 14 17 21 23 22 23 25 27 29 30 30 30 29 29 28 27 26 26 25 24 21 20 20 18 16 15 14 12 12 13 14 15 15 14 13 13 13 13 12 11 12 12 12 12 12 13 13 13 12 12 12 13 12 12 12 11 11 11 12 13 12 10
9 11 15 16 15 14 11 5 5 8 6 2 2 9 8 7 11 11 4 4 8 9 11 13 13 12 11 11 11 10 10 9 10 12 14 14 16 19 22 23 24 26 27 29 30 30 28 28 29 28 27 25 25 25 25 23 23 22 21 19 16 15 13 13 14 13 13 13 13 12 11 12 13 12 12 12 13 12 12 13 13 14 13 13 12 12 13 13 12 12 11 11 11 11 12 13 11
8 5 7 12 13 13 11 6 3 6 6 1 1 7 9 5 7 9 5 6 10 7 8 12 10 10 10 8 8 9 10 9 9 11 13 14 15 17 19 23 26 26 27 26 27 28 28 27 28 28 27 25 25 26 27 26 24 22 22 21 18 16 14 14 14 12 11 11 10 10 11 12 13 13 12 13 13 12 12 12 13 14 13 13 13 12 13 13 12 12 11 11 12 12 11 12 13
5 1 2 2 6 9 8 5 5 6 8 4 5 4 11 10 7 11 10 10 11 9 10 12 9 11 14 11 7 10 11 10 10 10 13 14 15 16 19 22 25 24 25 25 25 28 28 28 29 29 28 26 27 28 29 29 26 23 22 20 17 15 14 12 12 11 11 11 11 10 11 11 13 14 13 13 13 12 12 13 13 13 13 14 13 13 13 13 12 12 12 12 13 12 11 12 12
2 3 3 3 1 2 3 4 6 6 8 7 7 8 8 12 6 12 14 13 13 13 15 14 11 11 15 15 7 10 11 11 11 11 13 13 14 17 20 21 22 23 24 25 26 27 29 29 29 30 29 26 27 30 31 30 28 24 22 20 17 15 13 12 11 11 11 12 13 12 11 11 12 14 14 13 13 12 11 12 12 12 14 14 13 13 13 13 14 14 13 13 13 13 12 12 13
2 4 5 6 3 2 1 4 5 6 9 9 8 12 7 13 5 10 11 11 11 13 12 12 13 10 11 13 7 8 9 9 10 11 12 12 14 17 18 19 20 22 24 24 25 27 29 29 29 31 30 27 27 31 32 31 28 24 22 20 18 16 14 13 12 11 11 11 12 12 12 11 11 11 12 12 12 11 11 11 12 12 14 13 13 13 13 14 14 14 14 14 15 15 14 14 14
5 5 3 2 2 2 2 4 2 5 11 10 12 17 11 10 2 9 9 10 12 11 9 10 11 10 9 9 6 8 8 8 9 9 10 11 13 15 17 18 19 21 22 23 24 27 29 29 29 31 30 27 27 30 32 31 29 25 22 21 20 18 16 15 14 12 12 12 11 11 11 11 10 11 11 11 11 11 11 11 12 13 14 13 13 13 13 13 13 13 14 15 15 16 15 15 15
3 3 2 3 4 2 3 3 3 6 10 5 12 20 17 11 3 7 8 11 14 11 8 10 10 9 8 7 6 7 8 8 8 8 9 10 11 13 16 17 19 20 22 23 25 27 29 29 29 30 30 29 28 29 31 31 29 26 23 22 22 20 18 16 15 14 13 13 12 11 10 10 11 11 11 10 10 10 10 11 12 13 13 13 12 12 13 14 14 14 14 14 14 14 14 15 15
4 5 4 4 4 3 4 4 4 8 8 2 8 12 14 13 9 8 8 9 13 10 7 8 8 8 8 5 7 7 7 8 8 8 8 9 10 11 14 17 19 21 22 24 25 26 28 29 30 31 32 31 28 29 31 30 29 28 25 23 22 21 19 17 16 15 14 13 12 12 11 11 10 10 10 9 8 9 10 11 12 13 13 13 14 14 16 16 15 15 15 15 15 15 15 15 16
8 8 7 6 5 5 6 6 6 9 6 3 5 4 7 9 8 14 17 14 14 11 8 8 8 9 6 3 6 6 7 7 8 8 8 9 10 10 12 16 19 20 22 24 25 26 27 28 30 31 31 31 29 29 31 31 30 28 27 25 23 22 21 19 17 16 16 15 13 13 13 12 11 11 11 10 10 11 13 14 15 16 16 16 16 17 17 17 16 16 17 17 16 16 16 16 18
10 8 7 7 6 6 6 7 8 8 5 1 4 2 5 4 1 12 19 18 15 11 8 8 9 8 3 4 5 5 7 7 7 8 9 9 11 11 12 16 18 20 21 24 25 25 26 27 30 32 32 32 30 30 31 31 29 28 28 27 25 23 22 20 19 18 17 17 16 15 14 14 13 13 13 13 12 14 16 17 18 18 18 17 17 17 16 16 16 16 16 16 17 17 17 17 18
7 6 7 8 6 7 7 9 6 3 6 5 5 4 6 6 3 7 11 13 15 12 8 9 10 8 5 4 5 5 7 8 7 8 9 10 10 11 13 15 17 19 21 23 25 27 29 28 30 32 32 32 32 31 31 31 30 28 29 30 28 26 24 22 20 19 19 20 19 18 16 16 16 15 14 14 14 15 17 18 18 17 17 17 17 16 15 15 15 16 16 17 17 18 17 18 19
5 6 7 4 1 3 7 9 3 1 6 9 6 6 7 8 8 9 12 12 14 12 9 10 12 10 7 5 5 6 7 8 7 7 8 10 10 11 13 16 17 19 21 24 27 30 32 30 30 32 32 31 32 32 32 31 30 30 31 32 30 29 27 25 23 21 21 21 21 20 19 18 18 16 15 16 16 17 17 17 17 17 17 16 16 16 16 16 16 17 18 18 18 18 17 18 19
4 5 4 1 2 1 4 7 4 4 9 9 10 14 11 8 7 8 15 14 14 11 10 11 11 9 8 7 6 6 7 7 7 7 7 9 10 11 13 16 18 20 22 24 26 28 29 29 30 32 33 33 32 33 33 33 32 32 33 34 32 31 29 27 25 23 21 21 21 20 19 18 17 16 15 16 16 16 16 16 16 17 16 16 16 16 17 17 16 17 19 19 18 18 18 19 19
1 2 1 1 2 4 5 6 5 7 9 8 14 20 15 10 7 6 14 16 14 13 11 11 10 9 8 8 7 7 7 7 7 8 7 8 9 10 13 15 17 19 20 22 23 26 27 27 29 32 33 32 32 34 36 35 35 35 35 35 33 31 29 27 26 24 22 22 21 20 19 18 16 15 15 15 15 15 15 14 15 15 15 15 16 16 16 16 16 18 18 18 17 17 18 20 19
1 4 3 1 2 3 5 5 5 7 8 9 13 17 13 8 6 8 15 15 13 12 11 10 11 12 10 8 7 7 7 7 7 8 8 8 9 11 14 16 18 19 18 19 22 26 26 26 28 31 30 30 33 37 38 36 36 37 36 35 33 31 29 27 26 26 24 23 22 20 19 17 16 15 15 15 14 14 14 14 14 14 15 16 16 16 16 16 17 18 18 17 17 17 18 20 20
6 5 6 6 3 1 3 4 6 6 7 8 8 12 12 4 1 5 10 12 12 12 10 9 10 11 11 8 7 6 6 6 7 8 7 8 9 10 13 16 17 18 19 20 23 26 26 26 29 31 30 31 36 38 39 38 37 38 37 35 33 31 29 27 27 26 24 23 22 20 19 18 16 16 15 15 14 14 14 14 14 15 16 16 16 16 16 16 16 17 17 17 17 18 19 20 21
8 9 9 9 8 5 4 7 7 3 5 8 7 11 15 3 6 5 7 8 8 9 9 7 7 10 10 9 9 8 7 7 9 9 8 8 8 7 10 14 15 16 18 19 22 26 28 27 30 31 31 35 39 40 40 40 38 38 38 36 33 31 29 28 27 25 24 23 22 20 19 18 17 16 15 14 14 14 14 14 15 16 16 16 16 16 16 15 16 17 17 17 17 18 19 20 20
Wind_Direction
102 158 286 274 270 282 257 238 253 207 235 264 217 182 164 138 68 173 175 172 207 189 160 67 153 92 95 4 305 313 358 6 1 353 356 83 116 116 104 102 95 93 88 67 69 59 42 61 65 61 64 62 62 63 68 73 73 77 78 69 63 63 67 74 77 78 83 76 71 68 61 61 58 61 61 58 55 50 41 33 30 22 9 4 2 352 350 346 344 345 339 336 331 325 323 323 324
128 235 241 269 254 263 264 195 266 219 225 252 189 166 128 134 190 201 188 180 151 122 138 126 179 210 4 355 326 283 359 52 44 74 82 116 127 114 118 111 102 92 90 73 60 62 50 55 65 58 59 65 64 66 66 66 69 73 74 68 66 68 72 76 78 78 88 79 76 76 65 63 62 70 74 71 61 55 47 37 36 31 22 14 10 3 357 352 352 350 345 346 337 330 328 322 324
184 242 236 256 235 245 284 197 262 264 252 264 141 119 133 161 193 193 173 147 90 100 133 116 150 244 258 246 262 266 209 82 88 96 106 145 142 128 148 140 118 91 100 89 62 61 53 53 66 57 56 65 66 68 65 65 67 69 73 75 73 73 72 72 71 69 72 64 61 65 65 60 55 44 20 19 3 26 36 27 21 21 23 17 25 24 12 4 3 356 349 350 339 337 340 331 330
178 250 250 259 227 224 252 220 258 281 275 290 103 127 156 182 175 139 88 90 89 116 143 144 170 89 244 238 260 308 213 102 94 88 118 148 119 125 158 146 117 97 112 94 72 69 73 92 87 74 72 75 78 73 69 69 67 68 71 75 77 76 71 69 67 62 62 60 57 55 51 51 43 15 353 351 344 348 15 13 349 346 349 322 14 24 21 17 13 7 0 357 344 335 342 343 339
202 256 255 270 254 231 263 249 259 263 281 327 15 132 165 185 157 122 91 95 100 129 150 186 195 89 254 267 320 305 100 103 104 93 109 120 112 135 155 136 118 115 114 101 91 80 90 117 99 93 89 84 88 82 77 72 69 71 70 72 75 74 71 66 61 58 56 57 53 46 45 42 35 30 24 22 19 16 15 1 336 333 318 301 309 349 356 353 350 356 0 359 346 330 332 343 345
258 245 240 262 274 338 267 253 251 242 321 349 341 104 158 178 148 129 116 107 103 104 121 199 209 97 213 235 314 350 49 103 127 110 116 131 142 149 142 129 128 129 122 110 106 103 115 120 106 103 99 93 92 87 80 73 71 71 72 73 72 71 73 69 67 63 59 56 50 43 38 30 22 20 20 20 21 19 12 1 352 343 331 327 326 329 328 328 325 322 327 325 322 319 319 323 327
271 244 210 235 232 249 253 254 265 258 46 12 345 50 149 160 136 133 138 129 133 149 189 206 170 252 211 130 183 82 79 90 108 115 134 144 155 150 137 136 137 133 128 116 118 146 146 129 124 118 110 108 97 91 80 74 72 69 71 69 68 66 63 65 66 63 58 52 42 34 25 17 12 8 6 5 3 3 360 356 351 342 336 331 325 324 321 322 322 318 316 313 311 313 314 311 310
268 269 208 245 231 206 251 260 268 278 55 55 40 22 39 140 149 153 166 170 171 173 191 195 190 247 197 145 217 114 115 101 105 126 133 146 160 154 139 144 141 133 132 128 142 165 162 150 146 144 146 148 137 128 90 83 70 60 60 55 53 50 48 49 48 48 47 44 39 32 27 21 17 16 11 6 1 357 354 351 347 343 339 333 325 322 320 318 320 318 315 314 312 311 311 310 309
238 250 241 255 251 225 249 260 260 274 139 122 125 89 22 146 170 174 184 184 168 175 190 183 189 225 118 175 213 121 149 130 120 131 136 148 157 155 143 152 153 149 148 149 167 175 178 173 165 166 167 174 174 178 171 156 113 39 34 41 32 31 30 29 30 32 34 34 34 31 29 26 24 24 19 15 11 5 359 353 348 345 342 338 332 324 321 317 315 315 313 313 313 312 312 311 311
217 230 257 261 263 254 251 254 246 253 144 145 137 151 168 170 183 191 195 193 179 174 175 170 197 225 270 249 204 117 156 145 139 140 142 150 152 156 151 158 163 164 170 173 181 187 192 188 183 180 175 177 171 173 177 172 166 98 41 46 32 35 31 29 31 31 32 32 33 31 30 28 25 24 20 17 13 10 4 358 353 349 347 343 339 333 328 323 318 314 312 311 311 310 309 309 310
224 204 251 270 255 255 260 268 259 185 122 156 165 157 173 179 189 201 203 201 185 171 148 150 205 232 250 263 226 111 144 153 156 154 151 157 155 154 158 170 174 177 185 184 183 186 193 193 191 187 181 177 169 166 157 150 143 117 81 62 49 48 47 46 46 43 44 42 41 40 39 36 34 32 27 23 18 15 9 4 360 354 352 349 345 340 337 332 328 323 318 316 313 312 310 310 310
249 206 212 256 261 269 297 310 305 318 153 203 191 163 171 181 191 202 205 204 184 186 176 175 208 246 233 253 204 128 151 166 165 158 155 159 158 152 158 173 177 181 186 181 178 180 183 184 186 186 183 175 165 159 143 133 120 106 96 80 69 63 58 56 55 56 55 53 53 50 47 44 41 38 33 30 25 21 16 11 7 2 359 355 352 348 344 340 336 332 328 324 321 318 317 316 314
252 266 242 255 277 290 307 307 304 309 274 236 189 158 168 184 197 206 204 208 199 206 200 186 177 322 240 260 110 148 167 173 165 156 156 158 157 154 149 160 174 180 181 178 180 179 167 167 179 176 166 161 152 146 134 122 110 101 94 86 83 78 74 72 68 67 65 64 63 60 59 55 50 46 40 37 31 27 22 17 13 9 5 0 357 352 349 346 343 339 336 331 328 326 323 321 319
256 288 275 268 280 280 285 284 291 295 281 142 130 146 175 195 204 210 206 217 211 203 169 171 174 212 256 251 158 176 174 168 162 155 157 157 155 155 151 162 176 180 178 173 175 173 161 162 173 168 158 154 146 135 121 107 100 95 91 87 85 82 79 76 73 69 66 63 62 61 60 57 53 49 45 42 39 36 32 26 24 20 15 10 4 360 355 351 348 345 343 339 336 333 329 327 323
264 282 268 268 275 270 253 264 295 292 292 102 130 155 185 205 206 215 216 227 212 118 101 139 181 185 260 231 195 138 159 160 157 154 156 155 154 156 159 170 178 180 176 166 167 168 166 173 174 170 163 157 150 140 125 103 92 85 81 81 79 77 75 70 67 64 59 56 53 52 50 48 44 40 37 35 34 33 31 27 26 25 21 18 13 10 6 1 357 353 350 347 344 341 338 335 330
255 277 250 256 268 269 214 235 285 275 304 98 146 171 191 202 195 218 236 271 274 117 168 176 189 214 312 202 66 108 150 152 153 155 153 153 157 162 168 175 178 179 179 174 175 174 174 179 175 172 168 165 162 152 139 119 103 88 79 77 75 72 70 67 62 58 56 52 49 49 47 44 40 35 31 28 28 26 26 23 21 21 18 16 14 12 10 7 5 1 359 354 352 349 346 344 342
233 246 245 253 257 263 207 227 263 292 341 100 155 184 207 206 183 215 15 295 257 185 200 209 195 223 279 120 106 135 145 148 152 155 157 162 166 172 180 183 179 182 185 181 182 182 181 180 176 176 174 172 168 159 150 136 121 107 97 88 82 75 71 68 61 55 53 49 45 47 45 43 40 35 30 26 26 24 24 20 17 17 15 14 12 11 10 9 7 4 4 360 358 357 356 358 355
219 227 241 254 261 272 354 276 286 315 307 152 163 191 224 220 177 180 136 237 242 232 222 223 214 219 191 121 130 147 145 153 159 163 168 173 179 183 186 188 187 186 185 185 185 185 183 183 181 180 178 173 169 165 158 148 137 125 117 108 94 80 71 66 61 54 49 44 42 43 38 35 36 32 26 24 24 23 23 19 16 16 14 13 11 10 11 10 7 6 7 4 3 4 4 4 359
230 249 253 257 275 311 13 292 283 285 292 298 174 201 226 235 175 161 209 230 224 231 234 221 224 223 189 151 154 156 155 166 170 177 180 181 188 190 189 189 191 189 185 185 185 185 184 185 182 181 182 174 168 167 161 153 144 135 126 111 95 80 72 64 58 51 44 39 40 41 32 26 29 25 18 18 20 20 18 15 15 14 12 12 9 9 10 8 6 7 7 6 7 7 6 6 360
234 246 256 265 318 312 265 255 258 271 288 275 252 202 220 238 173 151 220 245 228 228 231 218 224 227 207 175 166 167 170 178 181 187 189 191 195 194 195 191 192 192 186 183 181 184 185 184 181 185 185 173 169 169 161 156 149 142 137 123 103 83 71 62 52 47 43 40 40 39 29 25 28 22 15 17 19 18 15 12 12 11 10 9 8 9 8 5 6 6 6 6 7 5 5 3 359
220 217 258 310 29 302 267 211 255 262 272 269 260 209 230 230 189 187 224 249 242 235 231 224 224 226 213 182 173 177 179 184 187 193 195 197 199 199 202 197 195 192 184 181 180 184 183 184 186 188 186 176 172 167 162 167 161 154 154 142 123 103 80 68 53 45 42 41 40 36 27 25 26 20 14 16 17 18 16 13 12 9 9 8 8 9 6 4 6 6 4 5 4 2 1 359 356
260 234 258 297 306 282 296 109 291 213 244 263 242 232 236 199 199 218 226 239 247 250 242 233 226 234 221 178 175 180 183 190 190 196 199 199 201 202 203 199 196 189 183 182 182 185 183 184 189 189 185 179 172 167 176 178 164 160 166 154 135 124 100 85 69 51 40 39 38 32 29 24 21 15 11 12 14 15 12 11 10 8 9 7 7 8 5 6 7 4 2 2 1 359 356 354 353
258 248 253 266 257 261 249 104 127 197 238 241 236 248 226 207 232 227 226 236 244 256 34 252 233 251 214 164 171 181 187 195 194 198 200 200 202 202 202 198 194 188 183 184 182 183 182 184 191 190 185 182 176 175 183 178 167 171 175 163 153 153 132 112 98 63 39 36 34 30 30 24 20 13 8 9 9 8 5 6 7 6 6 4 6 5 2 6 5 2 1 358 358 356 353 352 349
241 264 263 255 244 246 248 129 166 220 240 243 270 289 238 235 250 242 233 238 243 244 187 158 203 225 166 160 174 186 191 197 199 202 201 203 204 202 202 199 196 189 183 184 181 181 181 183 191 189 185 186 183 181 179 174 177 182 178 168 169 168 147 144 139 73 44 30 28 27 27 24 19 10 6 6 4 2 359 1 4 2 1 360 2 2 360 2 1 359 358 356 355 353 352 349 343
223 254 272 254 237 245 241 189 211 223 234 250 266 256 246 246 267 270 249 246 245 244 226 187 185 189 181 182 187 190 196 200 202 204 203 206 206 203 203 201 198 190 186 185 180 181 181 184 188 186 186 188 184 181 176 177 185 184 177 175 180 172 158 164 151 95 59 20 15 16 20 20 13 4 1 1 359 358 355 358 1 356 355 353 355 358 356 357 358 356 354 353 352 349 349 344 339
221 259 285 257 254 252 231 228 232 219 222 222 230 246 249 247 299 274 253 250 247 242 237 215 197 205 203 201 199 196 200 202 202 202 204 205 204 204 203 201 200 195 189 184 180 181 180 184 185 182 185 184 182 180 177 181 187 185 181 182 182 172 172 173 146 132 133 5 352 358 7 8 3 357 355 356 355 355 354 355 354 353 352 347 350 352 349 352 354 351 348 347 347 345 343 339 335
312 286 288 266 261 256 229 238 233 214 229 214 221 251 253 206 186 259 251 244 240 229 230 221 208 218 215 211 208 203 204 204 202 200 201 202 202 204 202 201 201 197 189 184 183 180 179 184 183 181 181 181 182 181 179 181 183 185 186 183 181 178 178 171 158 176 205 274 312 341 349 352 353 349 349 350 349 348 348 347 348 350 349 343 344 342 343 350 350 343 341 341 344 343 338 333 329
322 302 291 269 255 246 229 235 227 211 225 207 220 259 255 202 206 247 240 134 192 204 214 214 213 224 218 216 212 205 209 207 201 198 200 201 201 202 200 200 199 195 190 186 183 178 179 182 182 180 181 186 186 181 181 179 177 186 185 179 185 184 177 170 174 191 211 255 287 321 328 338 343 340 339 338 338 338 338 341 345 345 341 334 335 336 342 349 343 331 331 336 338 334 330 325 323
293 293 285 276 262 250 231 224 213 204 199 170 200 267 248 214 223 246 232 162 178 197 212 212 214 224 218 216 212 208 210 205 201 202 204 204 202 199 200 199 195 192 192 187 180 178 180 179 180 180 182 190 187 180 184 179 181 189 180 179 191 185 176 177 184 198 212 246 277 296 309 322 328 328 325 324 326 329 333 338 338 337 327 322 334 340 338 338 330 319 324 329 328 324 323 320 318
280 260 264 280 276 259 218 194 178 189 185 147 179 272 256 215 224 240 209 164 185 203 218 220 220 222 216 214 210 211 209 204 205 205 207 206 204 201 201 199 194 192 189 184 181 179 180 179 178 179 183 189 184 181 183 178 183 186 178 184 192 183 181 186 192 209 217 240 275 286 296 306 310 311 310 313 318 323 332 333 329 325 313 322 337 337 328 332 324 317 325 325 323 322 319 317 317
255 253 243 253 266 262 169 162 168 180 174 153 185 258 272 257 239 226 170 165 192 212 223 224 227 222 212 211 209 213 209 207 210 208 207 207 206 203 201 198 193 191 186 183 183 179 179 182 181 181 183 185 184 182 181 180 183 184 182 187 192 185 184 192 197 213 220 227 256 273 281 289 295 297 300 305 313 321 326 324 320 311 309 325 336 329 329 335 323 318 326 325 325 323 318 317 315
228 247 257 241 244 245 179 175 186 190 159 172 194 240 263 276 276 168 149 173 196 225 237 231 234 228 215 209 208 215 212 211 212 210 209 207 207 204 200 197 191 190 188 182 180 177 178 184 187 186 184 184 186 185 183 187 188 188 188 187 194 191 187 193 200 210 216 222 233 253 271 277 281 287 293 299 310 319 319 317 313 307 314 327 332 330 331 328 316 320 326 326 324 320 318 316 313
224 226 261 261 254 261 220 173 197 204 145 178 209 249 265 269 271 133 149 185 201 234 248 244 246 240 224 212 207 212 211 210 211 210 210 208 207 203 198 195 191 190 189 182 179 179 177 185 190 188 187 186 187 188 187 191 190 189 189 190 196 195 192 195 203 213 212 221 229 236 257 268 276 281 288 299 311 316 317 318 315 314 320 327 329 328 327 319 317 321 323 324 320 316 314 312 312
246 224 249 264 263 268 256 194 197 195 186 205 215 236 256 262 265 249 205 191 207 236 252 254 256 252 239 223 210 209 207 209 209 205 206 205 203 200 197 195 192 189 189 184 182 182 179 185 190 189 187 185 184 188 189 191 190 189 191 195 200 199 201 199 203 215 214 220 226 228 245 260 272 278 286 298 307 312 316 318 315 316 319 323 325 322 319 316 313 312 314 316 316 313 310 310 311
278 271 262 272 271 265 264 264 167 176 201 229 224 231 250 258 263 266 256 229 223 236 251 258 258 255 250 235 222 214 208 212 209 200 201 201 199 196 194 193 190 188 188 185 182 182 180 182 186 187 187 183 182 186 187 187 186 187 189 195 202 203 207 209 209 214 216 218 220 231 245 256 266 276 287 295 302 307 310 311 310 313 314 317 317 311 309 307 305 305 308 310 312 309 306 306 306
281 283 278 280 280 268 269 274 151 178 205 226 233 242 254 258 260 263 265 260 252 250 253 258 258 256 253 243 233 221 215 216 204 197 196 195 193 191 189 189 187 187 188 185 182 182 180 178 181 184 185 182 180 181 182 182 180 183 186 190 200 204 204 210 214 216 218 219 224 237 246 253 260 272 282 289 296 298 300 303 307 309 308 306 302 295 294 296 299 303 304 306 306 305 303 302 302
278 277 274 270 270 270 270 264 151 184 222 237 243 249 256 261 263 263 266 268 269 266 261 258 258 256 252 245 237 225 220 214 191 193 192 187 187 185 184 185 184 185 188 187 184 183 181 180 182 183 184 182 182 181 182 183 181 183 187 189 195 199 199 202 210 218 221 220 228 240 247 254 259 266 274 280 285 286 293 299 301 302 296 289 286 284 288 293 296 298 299 299 298 299 302 302 304
267 264 269 269 263 266 270 238 145 175 217 252 257 259 260 261 264 265 264 261 262 265 263 260 262 263 258 248 240 230 218 194 178 187 185 180 180 179 180 183 183 186 189 189 187 184 182 183 184 184 183 184 185 185 185 186 187 187 187 190 190 190 193 196 202 214 223 225 231 240 245 252 257 262 265 268 272 277 287 290 290 291 287 283 282 283 288 291 292 291 289 292 294 295 297 300 305
261 255 258 263 262 267 267 128 139 177 205 264 270 270 269 267 266 264 259 254 251 254 257 260 266 269 263 253 246 232 205 182 184 187 181 176 176 176 179 184 188 189 189 190 189 185 183 185 186 184 184 186 187 188 188 187 188 187 185 186 185 182 187 195 196 198 211 223 233 241 245 249 252 253 257 262 269 279 284 285 287 287 287 285 281 283 285 284 283 281 280 286 293 295 294 298 301
242 241 249 254 255 264 263 155 156 196 215 274 289 280 272 268 262 254 251 249 245 246 252 258 263 262 259 258 254 233 201 186 192 192 183 177 176 179 184 187 189 190 190 191 190 187 186 187 187 185 185 186 187 189 190 186 182 182 181 182 182 181 186 198 204 209 217 226 234 242 246 248 248 244 250 261 270 278 282 283 285 285 284 280 275 277 278 276 276 275 278 281 288 296 297 298 298
232 226 235 248 252 256 263 300 339 240 230 257 291 281 267 255 245 240 241 240 239 241 247 256 257 253 254 257 252 233 208 193 195 194 186 181 182 186 189 189 188 190 193 192 190 189 188 189 188 185 185 186 187 189 187 181 178 180 181 181 186 189 192 200 208 216 224 230 234 238 243 245 244 245 252 262 269 272 275 279 282 281 280 274 269 270 271 274 274 273 276 278 280 287 292 297 297
245 223 229 245 258 264 269 322 359 289 261 173 284 293 275 234 229 230 184 167 222 227 231 242 252 253 246 242 238 221 204 200 202 196 186 184 187 189 190 189 190 193 195 193 191 191 190 189 187 185 185 186 187 187 183 181 183 184 183 182 186 191 196 203 208 208 211 219 226 227 230 235 241 249 256 262 266 267 272 277 279 278 276 269 265 267 268 272 273 271 271 273 276 279 286 294 296
254 229 239 248 257 266 270 293 310 280 283 187 105 310 289 247 222 231 198 188 212 205 219 230 237 249 243 232 213 194 194 196 202 197 185 186 187 188 190 191 193 195 195 192 191 192 190 188 187 185 186 187 187 186 184 186 187 186 188 190 191 192 196 202 204 200 194 196 201 205 218 235 247 254 257 260 263 266 272 276 277 277 272 265 262 262 265 269 270 270 268 268 275 278 278 284 291
252 19 358 257 250 257 255 267 249 261 293 271 182 232 278 273 228 219 224 231 232 229 241 241 227 230 241 243 196 174 190 188 189 193 187 189 188 189 192 192 194 194 191 190 189 191 190 188 188 186 187 188 187 188 188 190 190 187 189 192 194 195 195 191 187 185 187 192 199 209 221 237 250 256 258 259 261 266 272 275 275 272 263 259 259 259 262 266 267 270 270 268 272 275 273 276 285
265 54 37 69 79 248 214 241 255 272 293 271 199 177 254 280 230 195 211 225 235 237 242 248 241 224 229 241 210 168 188 186 183 190 188 191 190 190 192 191 192 192 189 189 188 188 189 190 189 187 189 187 186 191 192 193 193 190 188 190 191 193 191 184 179 182 191 202 214 221 225 231 241 252 258 258 258 264 271 274 272 267 262 259 257 258 263 268 271 271 270 271 273 274 273 274 277
142 106 82 77 89 98 148 243 270 282 271 258 210 169 222 282 244 172 195 210 219 231 236 238 245 234 219 231 213 166 184 188 184 189 187 189 189 189 190 188 189 189 189 190 187 186 187 189 189 189 190 188 188 193 194 194 193 190 189 190 189 188 188 187 187 190 194 204 215 221 226 228 229 235 244 251 257 267 274 274 271 268 264 259 259 266 272 274 274 271 269 274 280 281 277 272 271
135 145 114 112 189 167 206 240 265 277 264 249 202 179 202 272 243 149 179 202 202 210 222 221 230 235 218 217 202 171 180 184 182 185 182 182 182 182 184 186 187 186 186 187 186 186 187 188 190 191 191 189 190 192 193 193 193 191 190 190 190 188 186 185 188 193 196 202 210 215 223 227 225 225 232 244 257 270 276 275 275 276 270 263 264 270 270 269 270 271 273 277 281 281 276 270 268
166 176 194 229 229 198 214 213 168 247 263 237 183 183 198 233 221 156 185 200 196 192 210 224 225 231 222 199 184 179 179 177 175 177 174 172 175 177 181 187 187 184 184 186 187 187 188 190 191 192 193 191 189 189 191 192 192 191 190 191 193 191 187 187 190 194 197 203 208 211 218 223 229 235 239 248 258 265 269 269 274 277 270 263 262 263 266 272 276 276 274 273 273 275 272 268 267
203 193 195 234 246 229 231 217 192 235 254 140 155 185 208 234 244 229 225 206 196 196 216 234 232 234 233 190 165 170 172 173 172 170 171 174 176 178 183 187 187 186 187 188 188 187 189 192 192 193 194 191 188 188 190 191 192 192 191 191 194 194 194 194 195 196 199 204 207 209 214 218 226 232 236 243 246 249 255 260 266 267 266 266 267 273 280 285 285 282 279 275 272 272 270 266 264
192 191 186 206 231 248 250 241 237 245 246 129 131 188 234 256 249 226 230 221 206 211 220 224 228 230 231 171 147 159 171 176 172 170 175 179 181 183 184 187 188 189 190 189 190 189 190 192 193 195 195 191 189 189 188 189 191 192 193 193 194 196 197 197 197 199 201 205 206 209 214 217 222 228 235 241 244 250 259 264 270 274 277 279 280 285 291 292 291 289 287 284 278 273 270 267 264
194 196 197 213 228 243 251 255 256 265 288 194 153 191 237 266 217 198 217 220 210 217 214 205 222 221 183 118 143 163 180 186 176 174 181 184 184 183 183 187 190 191 191 190 191 190 190 193 195 195 195 191 189 189 187 188 189 189 192 195 195 197 199 200 202 204 206 209 212 214 218 224 229 234 242 248 252 258 265 271 277 281 283 284 286 291 292 290 289 283 278 278 276 275 271 266 265
194 183 207 231 236 230 247 269 269 300 319 272 198 219 245 263 269 184 198 207 201 211 209 201 222 215 159 154 188 185 190 191 183 181 186 186 185 185 185 188 191 191 191 190 191 191 192 194 195 195 194 191 190 191 187 186 187 187 192 197 198 198 201 201 204 207 210 214 218 220 224 231 236 239 244 250 254 259 266 273 277 279 279 283 288 291 287 284 284 279 275 274 274 276 272 266 266
164 176 205 223 278 229 244 265 271 121 279 268 235 246 257 269 263 186 168 190 198 200 198 203 221 215 191 199 198 190 197 194 188 187 185 184 185 189 189 189 190 190 190 193 193 194 194 193 192 193 193 191 190 190 186 184 185 187 192 197 198 200 202 203 205 208 211 215 220 224 227 232 237 240 244 250 255 260 267 272 275 277 279 284 289 290 289 287 283 279 277 275 275 276 271 268 267
144 187 209 111 44 310 246 257 263 244 261 270 264 266 267 269 267 171 167 197 204 195 200 207 216 213 207 213 206 199 196 190 196 196 191 191 189 191 192 193 195 193 193 195 195 195 196 194 191 190 190 191 189 188 188 187 186 189 192 195 198 200 203 205 207 208 210 215 220 224 230 234 238 241 244 251 257 264 269 272 275 277 278 282 287 288 288 285 277 275 277 276 275 274 270 269 268
175 282 298 84 223 209 204 224 244 249 255 265 270 276 272 253 255 178 177 199 200 195 206 211 208 209 210 217 221 212 190 184 200 199 196 199 196 196 196 195 198 198 196 196 193 194 196 195 195 193 192 191 190 191 193 191 191 193 192 194 197 200 203 205 207 208 211 216 220 225 230 233 236 239 243 251 257 262 265 266 265 267 270 277 284 285 280 274 269 273 277 276 273 270 268 270 268
260 302 273 228 250 231 211 210 225 238 247 261 273 282 278 253 246 201 183 190 194 193 202 206 208 212 210 211 222 215 194 189 199 203 200 198 201 204 200 198 200 199 198 195 193 195 195 193 195 195 192 191 192 194 194 191 192 194 192 193 196 199 202 204 207 210 212 216 221 225 228 230 233 237 243 248 251 254 256 256 254 258 266 273 280 281 273 265 266 272 274 273 272 269 267 269 269
187 223 217 201 196 281 287 245 234 237 246 255 263 272 273 275 155 181 167 171 185 187 195 199 201 211 211 208 216 216 205 200 201 206 203 195 198 199 197 200 201 200 200 197 196 197 195 194 196 194 191 191 193 195 193 192 193 193 192 192 195 197 200 202 206 210 212 216 221 223 225 228 231 236 241 243 245 248 247 248 253 260 267 271 275 276 269 262 265 272 271 269 270 267 266 268 269
185 199 202 199 187 183 235 235 225 218 239 246 244 260 267 265 101 125 136 149 178 182 188 193 191 203 209 209 216 219 215 215 213 210 206 200 193 182 184 190 190 194 197 194 196 198 195 194 196 194 192 194 195 194 193 193 192 191 192 192 193 196 198 201 205 207 210 214 217 220 222 226 229 235 238 239 243 245 245 249 255 261 266 269 273 273 267 263 265 269 269 269 269 267 267 268 268